Location: Stuttgart
(48.8069°N, 9.1544°E)
Time: 12:22:03
(UTC+02:00)

ISS - Visible Passes

Search period start: 13 May 2021 00:00
Search period end: 23 May 2021 00:00
Orbit: 417 x 422 km, 51.6° (Epoch: 13 May)

Date Brightness Start Highest point End Pass type
(mag) Time Alt. Az. Time Alt. Az. Time Alt. Az.
13 May -2.9 02:05:02 43° NW 02:05:39 51° N 02:08:58 10° ENE visible
13 May -3.5 03:39:21 10° WNW 03:42:44 70° NNE 03:46:06 10° E visible
14 May -2.9 01:18:39 49° NNE 01:18:39 49° NNE 01:21:30 10° ENE visible
14 May -3.2 02:51:54 10° WNW 02:55:15 58° N 02:58:36 10° E visible
14 May -3.5 04:28:47 10° WNW 04:32:03 47° SSW 04:35:19 10° SE visible
14 May -3.3 22:50:50 10° SW 22:53:57 36° SSE 22:55:36 22° E visible
15 May -3.4 00:27:18 10° W 00:30:39 65° NNW 00:34:01 10° ENE visible
15 May -3.0 02:04:26 10° WNW 02:07:45 52° N 02:11:04 10° E visible
15 May -3.9 03:41:18 10° WNW 03:44:40 68° SSW 03:48:01 10° ESE visible
15 May -2.7 22:03:50 10° SSW 22:06:38 25° SE 22:09:27 10° E visible
15 May -3.8 23:39:49 10° WSW 23:43:11 82° NNW 23:46:35 10° ENE visible
16 May -2.9 01:16:56 10° WNW 01:20:13 50° N 01:23:32 10° ENE visible
16 May -3.9 02:53:51 10° WNW 02:57:14 89° NNE 03:00:38 10° ESE visible
16 May -2.5 04:31:04 10° W 04:33:44 22° SW 04:36:24 10° SSE visible
16 May -3.9 22:52:23 10° WSW 22:55:45 76° SSE 22:59:07 10° ENE visible
17 May -2.9 00:29:24 10° W 00:32:42 51° N 00:36:01 10° ENE visible
17 May -3.6 02:06:24 10° WNW 02:09:47 70° NNE 02:13:09 10° E visible
17 May -3.1 03:43:23 10° W 03:46:26 32° SW 03:49:29 10° SSE visible
17 May -3.7 22:05:04 10° SW 22:08:20 53° SSE 22:11:39 10° ENE visible
17 May -3.1 23:41:52 10° W 23:45:11 56° N 23:48:32 10° ENE visible
18 May -3.2 01:18:56 10° WNW 01:22:17 58° NNE 01:22:56 47° ENE visible
18 May -3.4 22:54:20 10° W 22:57:41 65° NNW 23:01:04 10° ENE visible
19 May -3.0 00:31:28 10° WNW 00:34:47 52° N 00:36:31 24° ENE visible
19 May -1.7 02:08:20 10° WNW 02:09:26 19° WNW 02:09:26 19° WNW visible
19 May -3.7 22:06:50 10° WSW 22:10:13 81° NNW 22:13:36 10° ENE visible
19 May -2.9 23:43:57 10° WNW 23:47:15 50° N 23:50:21 11° ENE visible
20 May -2.9 01:20:52 10° WNW 01:23:16 43° WNW 01:23:16 43° WNW visible
20 May -2.9 22:56:25 10° W 22:59:43 51° N 23:03:02 10° ENE visible
21 May -3.6 00:33:25 10° WNW 00:36:48 71° NNE 00:37:12 61° ENE visible
21 May -3.0 22:08:53 10° W 22:12:12 55° N 22:15:32 10° ENE visible
21 May -3.2 23:45:57 10° WNW 23:49:18 59° N 23:51:10 23° E visible
22 May -1.8 01:22:50 10° WNW 01:24:06 20° W 01:24:06 20° W visible
22 May -3.0 22:58:28 10° WNW 23:01:47 52° N 23:05:05 10° E visible
